TimeCST,TemperatureF,Dew PointF,Humidity,Sea Level PressureIn,VisibilityMPH,Wind Direction,Wind SpeedMPH,Gust SpeedMPH,PrecipitationIn,Events,Conditions,WindDirDegrees,DateUTC
12:32 AM,1.4,-2.2,85,29.91,6.0,Calm,Calm,-,0.00,,Haze,0,2013-02-03 06:32:00
12:54 AM,1.9,-2.9,80,30.00,7.0,Calm,Calm,-,0.00,Snow,Light Snow,0,2013-02-03 06:54:00
1:54 AM,3.9,-0.0,84,29.98,5.0,Calm,Calm,-,0.00,Snow,Light Snow,0,2013-02-03 07:54:00
2:54 AM,5.0,1.0,84,29.96,8.0,West,4.6,-,0.00,,Overcast,260,2013-02-03 08:54:00
3:54 AM,5.0,1.9,87,29.94,7.0,West,5.8,-,0.00,,Overcast,270,2013-02-03 09:54:00
4:54 AM,7.0,3.0,84,29.96,5.0,WNW,10.4,-,0.00,Snow,Light Snow,290,2013-02-03 10:54:00
5:47 AM,6.8,1.4,79,29.86,7.0,WNW,13.8,-,0.00,,Overcast,300,2013-02-03 11:47:00
5:54 AM,7.0,1.9,80,29.96,6.0,WNW,13.8,-,0.00,,Haze,300,2013-02-03 11:54:00
6:15 AM,6.8,1.4,79,29.88,6.0,NW,16.1,-,N/A,,Haze,310,2013-02-03 12:15:00
6:54 AM,7.0,1.0,77,29.99,7.0,NW,18.4,-,N/A,,Overcast,310,2013-02-03 12:54:00
7:54 AM,5.0,-0.0,80,30.01,10.0,WNW,13.8,-,N/A,,Clear,300,2013-02-03 13:54:00
8:54 AM,5.0,-0.0,80,30.01,10.0,WNW,13.8,-,N/A,,Clear,300,2013-02-03 14:54:00
9:24 AM,6.8,-0.4,72,29.93,9.0,WNW,15.0,-,N/A,,Mostly Cloudy,300,2013-02-03 15:24:00
9:54 AM,7.0,-0.0,73,30.03,7.0,NW,18.4,-,N/A,,Overcast,310,2013-02-03 15:54:00
10:28 AM,8.6,-0.4,67,29.93,10.0,NW,17.3,23.0,N/A,,Scattered Clouds,310,2013-02-03 16:28:00
10:54 AM,8.1,-0.0,70,30.03,10.0,NW,16.1,20.7,N/A,,Clear,310,2013-02-03 16:54:00
11:54 AM,10.0,1.0,67,30.01,10.0,NW,12.7,-,N/A,,Clear,310,2013-02-03 17:54:00
12:35 PM,12.2,1.4,62,29.92,10.0,WNW,15.0,-,N/A,,Mostly Cloudy,290,2013-02-03 18:35:00
12:49 PM,10.4,1.4,67,29.92,10.0,NW,15.0,-,N/A,,Scattered Clouds,310,2013-02-03 18:49:00
12:54 PM,10.9,1.9,67,30.01,10.0,WNW,13.8,20.7,N/A,,Scattered Clouds,300,2013-02-03 18:54:00
1:54 PM,12.0,1.0,61,30.01,10.0,NW,15.0,-,N/A,,Partly Cloudy,310,2013-02-03 19:54:00
2:54 PM,12.9,-0.0,56,30.01,10.0,WNW,12.7,-,N/A,,Clear,290,2013-02-03 20:54:00
3:54 PM,12.0,-0.0,59,30.01,10.0,WNW,11.5,-,N/A,,Clear,300,2013-02-03 21:54:00
4:54 PM,10.0,-2.0,58,30.01,10.0,NW,8.1,-,N/A,,Clear,310,2013-02-03 22:54:00
5:54 PM,6.1,-2.9,67,30.02,10.0,NW,5.8,-,N/A,,Partly Cloudy,310,2013-02-03 23:54:00
6:54 PM,9.0,-2.0,61,30.02,10.0,West,4.6,-,N/A,,Overcast,280,2013-02-04 00:54:00
7:54 PM,9.0,-0.0,67,30.04,10.0,West,4.6,-,N/A,,Overcast,270,2013-02-04 01:54:00
8:54 PM,8.1,-0.0,70,30.04,10.0,West,4.6,-,N/A,,Mostly Cloudy,280,2013-02-04 02:54:00
9:54 PM,8.1,-0.0,70,30.04,10.0,Calm,Calm,-,N/A,,Mostly Cloudy,0,2013-02-04 03:54:00
10:54 PM,9.0,1.0,70,30.03,10.0,Calm,Calm,-,N/A,,Overcast,0,2013-02-04 04:54:00
11:54 PM,9.0,1.9,73,30.03,6.0,Calm,Calm,-,0.00,Snow,Light Snow,0,2013-02-04 05:54:00